Location: Newark
(35.6799°N, 139.7636°E)
Time: 18:57:33
(UTC+00:00)

Hubble Space Telescope - Visible Passes

Search period start: 12 November 2019 00:00
Search period end: 22 November 2019 00:00
Orbit: 536 x 540 km, 28.5° (Epoch: 12 November)

Date Brightness Start Highest point End Pass type
(mag) Time Alt. Az. Time Alt. Az. Time Alt. Az.
18 Nov 3.1 08:43:14 10° S 08:44:53 12° SSE 08:46:34 10° SE visible
19 Nov 3.0 08:31:52 10° SSW 08:34:12 15° SSE 08:36:31 10° SE visible
19 Nov 3.6 10:11:19 10° SW 10:12:00 14° SW 10:12:00 14° SW visible
20 Nov 2.9 08:20:46 10° SSW 08:23:30 17° SSE 08:26:14 10° ESE visible
20 Nov 3.2 10:00:35 10° SW 10:02:02 18° SW 10:02:02 18° SW visible
21 Nov 2.7 08:09:47 10° SSW 08:12:49 20° SSE 08:15:51 10° ESE visible
21 Nov 2.8 09:49:54 10° WSW 09:52:03 23° SW 09:52:03 23° SW visible
